Weather History for PAGY - March, 2012

Change the Weather History Date:

Tuesday, March 6, 2012

  Actual Average Record
Temperature  
Mean Temperature 36 °F -  
Max Temperature 39 °F 32 °F 46 °F (1968)
Min Temperature 33 °F 24 °F 3 °F (1971)
Degree Days  
Heating Degree Days 29    
Moisture  
Dew Point 29 °F    
Average Humidity 77    
Maximum Humidity 82    
Minimum Humidity 67    
Precipitation  
Precipitation 0.00 in - - ()
Sea Level Pressure  
Sea Level Pressure 29.72 in    
Wind  
Wind Speed 27 mph (SSW)    
Max Wind Speed 33 mph    
Max Gust Speed 45 mph    
Visibility 10 miles    
Events Snow    
Averages and records for this station are not official NWS values.
T = Trace of Precipitation, MM = Missing Value Source: NWS Daily Summary

Daily Weather History Graph

Daily Weather History Graph

Search for Another Location

Airport or City:

Trip Planner

Search our weather history database for the weather conditions in past years. The results will help you decide how hot, cold, wet, or windy it might be!

Date:

Astronomy

Mar. 06, 2012 Rise Set
Actual Time 6:42 AM AKST 5:43 PM AKST
Civil Twilight 6:01 AM AKST 6:24 PM AKST
Nautical Twilight 5:14 AM AKST 7:12 PM AKST
Astronomical Twilight 4:25 AM AKST 8:01 PM AKST
Moon 4:08 PM AKST (3/6) 5:39 AM AKST (3/6)
Length of Visible Light 12h 23m
Length of Day
11h 01m
Waxing Gibbous, 97% of the Moon is Illuminated
Mar 6
Waxing Gibbous
Mar 8
Full
Mar 14
Last Quarter
Mar 22
New
Mar 30
First Quarter

Hourly Weather History & Observations

Time (AKST) Temp. Windchill Dew Point Humidity Pressure Visibility Wind Dir Wind Speed Gust Speed Precip Events Conditions
12:53 AM 33.1 °F 20.3 °F 27.0 °F 78% 29.90 in 10.0 mi SSW 24.2 mph 35.7 mph N/A   Overcast
1:53 AM 34.0 °F 21.3 °F 27.0 °F 75% 29.88 in 10.0 mi SSW 25.3 mph 35.7 mph N/A   Overcast
3:53 AM 34.0 °F 20.3 °F 28.0 °F 79% 29.83 in 10.0 mi SSW 29.9 mph 39.1 mph N/A   Overcast
4:53 AM 34.0 °F 20.1 °F 28.0 °F 79% 29.81 in 10.0 mi SSW 31.1 mph 42.6 mph N/A   Overcast
5:53 AM 34.0 °F 20.8 °F 28.0 °F 79% 29.79 in 10.0 mi SSW 27.6 mph 36.8 mph N/A   Overcast
6:53 AM 34.0 °F 20.3 °F 28.0 °F 79% 29.78 in 10.0 mi SSW 29.9 mph 41.4 mph 0.00 in   Overcast
7:53 AM 34.0 °F 20.5 °F 28.9 °F 82% 29.78 in 10.0 mi SSW 28.8 mph 38.0 mph N/A   Overcast
8:53 AM 34.0 °F 19.7 °F 28.9 °F 82% 29.76 in 8.0 mi SSW 33.4 mph 40.3 mph 0.00 in Snow Light Snow
9:24 AM 33.8 °F 19.6 °F 28.4 °F 81% 29.75 in 6.0 mi SSW 32.2 mph 40.3 mph 0.00 in Snow Light Snow
9:53 AM 35.1 °F 21.6 °F 28.9 °F 78% 29.74 in 7.0 mi SSW 31.1 mph 39.1 mph 0.00 in Snow Light Snow
10:53 AM 35.1 °F 22.2 °F 28.0 °F 76% 29.75 in 8.0 mi SSW 27.6 mph 36.8 mph 0.00 in   Overcast
11:53 AM 35.1 °F 21.8 °F 28.9 °F 78% 29.73 in 10.0 mi SSW 29.9 mph 44.9 mph 0.00 in   Overcast
12:53 PM 36.0 °F 22.4 °F 28.9 °F 76% 29.70 in 10.0 mi SSW 33.4 mph 42.6 mph N/A   Mostly Cloudy
1:53 PM 35.6 °F 22.3 °F 28.4 °F 75% 29.68 in 10.0 mi SSW 31.1 mph 41.4 mph N/A   Mostly Cloudy
2:53 PM 37.0 °F 25.1 °F 30.0 °F 76% 29.67 in 10.0 mi SSW 26.5 mph 38.0 mph N/A   Overcast
3:16 PM 37.4 °F 25.6 °F 30.2 °F 75% 29.67 in 10.0 mi SSW 26.5 mph 38.0 mph N/A   Overcast
3:53 PM 37.4 °F 25.9 °F 30.2 °F 75% 29.66 in 10.0 mi SSW 25.3 mph 38.0 mph N/A   Overcast
4:53 PM 37.0 °F 25.1 °F 30.9 °F 79% 29.65 in 10.0 mi SSW 26.5 mph 33.4 mph N/A   Overcast
5:53 PM 37.0 °F 24.7 °F 30.9 °F 79% 29.65 in 10.0 mi SSW 28.8 mph 39.1 mph N/A   Overcast
6:01 PM 37.4 °F 25.9 °F 30.2 °F 75% 29.64 in 10.0 mi SSW 25.3 mph 35.7 mph N/A   Overcast
6:42 PM 37.4 °F 25.2 °F 30.2 °F 75% 29.63 in 10.0 mi SSW 28.8 mph 35.7 mph N/A   Overcast
6:53 PM 37.0 °F 25.9 °F 30.9 °F 79% 29.63 in 10.0 mi SSW 23.0 mph 34.5 mph N/A   Overcast
7:53 PM 37.9 °F 26.3 °F 32.0 °F 79% 29.62 in 10.0 mi SSW 26.5 mph 38.0 mph N/A   Overcast
8:53 PM 39.0 °F 28.8 °F 32.0 °F 76% 29.67 in 10.0 mi SSW 21.9 mph 34.5 mph N/A   Overcast
9:53 PM 37.9 °F 28.9 °F 32.0 °F 79% 29.68 in 10.0 mi SSW 16.1 mph 31.1 mph N/A   Overcast
10:53 PM 39.0 °F 27.6 °F 30.0 °F 70% 29.71 in 10.0 mi SSW 27.6 mph 34.5 mph N/A   Overcast
11:53 PM 39.0 °F 28.5 °F 28.9 °F 67% 29.75 in 10.0 mi SSW 23.0 mph 34.5 mph N/A   Overcast